| time (UTC) | temp C | wind direction | speed KPH | gust KPH | rain 1hr cm | rain 24hr cm | rain mn cm | humidity % | barometer mb |
| 20260509114519 | 11 | 241 | 0.0 | 4.8 | 0.00 | 0.00 | 0.00 | 52 | 1001.4 |
| 20260509113019 | 11 | 311 | 3.2 | 8.0 | 0.00 | 0.00 | 0.00 | 54 | 1001.5 |
| 20260509111529 | 10 | 238 | 0.0 | 4.8 | 0.00 | 0.00 | 0.00 | 55 | 1000.8 |
| 20260509110014 | 11 | 277 | 1.6 | 4.8 | 0.00 | 0.00 | 0.00 | 52 | 1000.9 |
| 20260509104524 | 10 | 187 | 0.0 | 3.2 | 0.00 | 0.00 | 0.00 | 53 | 1001.1 |
| 20260509103012 | 10 | 360 | 3.2 | 8.0 | 0.00 | 0.00 | 0.00 | 51 | 1001.1 |
| 20260509101514 | 10 | 5 | 0.0 | 4.8 | 0.00 | 0.00 | 0.00 | 52 | 1000.9 |
| 20260509100059 | 10 | 278 | 3.2 | 14.5 | 0.00 | 0.00 | 0.00 | 59 | 1000.6 |
| 20260509094544 | 8 | 18 | 1.6 | 6.4 | 0.00 | 0.00 | 0.00 | 59 | 1000.4 |
| 20260509093006 | 8 | 211 | 0.0 | 3.2 | 0.00 | 0.00 | 0.00 | 58 | 1000.1 |
| 20260509091502 | 10 | 211 | 0.0 | 0.0 | 0.00 | 0.00 | 0.00 | 56 | 1000.2 |
| 20260509090101 | 9 | 211 | 0.0 | 1.6 | 0.00 | 0.00 | 0.00 | 54 | 1000.4 |
| 20260509084600 | 10 | 211 | 0.0 | 0.0 | 0.00 | 0.00 | 0.00 | 51 | 1000.3 |
| 20260509083059 | 10 | 211 | 0.0 | 1.6 | 0.00 | 0.00 | 0.00 | 52 | 1000.3 |
| 20260509081602 | 10 | 211 | 0.0 | 3.2 | 0.00 | 0.00 | 0.00 | 49 | 1000.0 |
| 20260509080028 | 9 | 223 | 0.0 | 4.8 | 0.00 | 0.00 | 0.00 | 52 | 1000.1 |
| 20260509074527 | 9 | 219 | 1.6 | 4.8 | 0.00 | 0.00 | 0.00 | 52 | 1000.2 |
| 20260509073023 | 10 | 252 | 0.0 | 1.6 | 0.00 | 0.00 | 0.00 | 51 | 1000.4 |
| 20260509071519 | 10 | 206 | 1.6 | 4.8 | 0.00 | 0.00 | 0.00 | 49 | 1000.4 |
| 20260509070015 | 12 | 248 | 0.0 | 1.6 | 0.00 | 0.00 | 0.00 | 41 | 1000.7 |
| 20260509064525 | 12 | 248 | 0.0 | 0.0 | 0.00 | 0.00 | 0.00 | 38 | 1000.7 |
| 20260509063010 | 13 | 271 | 0.0 | 3.2 | 0.00 | 0.00 | 0.00 | 35 | 1000.8 |
| 20260509061526 | 14 | 302 | 0.0 | 6.4 | 0.00 | 0.00 | 0.00 | 33 | 1000.8 |
| 20260509060009 | 14 | 306 | 4.8 | 12.9 | 0.00 | 0.00 | 0.00 | 32 | 1000.9 |
| 20260509054509 | 15 | 301 | 4.8 | 12.9 | 0.00 | 0.00 | 0.00 | 31 | 1001.0 |
| 20260509053018 | 15 | 284 | 8.0 | 20.9 | 0.00 | 0.00 | 0.00 | 31 | 1001.2 |
| 20260509051507 | 15 | 347 | 8.0 | 17.7 | 0.00 | 0.00 | 0.00 | 31 | 1001.1 |
| 20260509050008 | 15 | 322 | 6.4 | 19.3 | 0.00 | 0.00 | 0.00 | 33 | 1001.0 |
| 20260509044505 | 16 | 326 | 8.0 | 24.1 | 0.00 | 0.00 | 0.00 | 33 | 1000.9 |
| 20260509043034 | 15 | 315 | 3.2 | 9.7 | 0.00 | 0.00 | 0.00 | 36 | 1000.8 |
| 20260509041534 | 15 | 318 | 3.2 | 9.7 | 0.00 | 0.00 | 0.00 | 36 | 1000.6 |
| 20260509040029 | 15 | 287 | 4.8 | 9.7 | 0.00 | 0.00 | 0.00 | 37 | 1000.5 |
| 20260509034535 | 15 | 329 | 3.2 | 8.0 | 0.00 | 0.00 | 0.00 | 38 | 1000.4 |
| 20260509033028 | 13 | 317 | 1.6 | 8.0 | 0.00 | 0.00 | 0.00 | 41 | 1000.3 |
| 20260509031527 | 12 | 282 | 1.6 | 4.8 | 0.00 | 0.00 | 0.00 | 49 | 1000.2 |
| 20260509030025 | 11 | 280 | 0.0 | 4.8 | 0.00 | 0.00 | 0.00 | 57 | 1000.1 |
| 20260509024525 | 12 | 286 | 1.6 | 3.2 | 0.00 | 0.00 | 0.00 | 53 | 999.9 |
| 20260509023019 | 11 | 228 | 0.0 | 3.2 | 0.00 | 0.00 | 0.00 | 53 | 999.9 |
| 20260509021515 | 12 | 240 | 1.6 | 3.2 | 0.00 | 0.00 | 0.00 | 48 | 999.7 |
| 20260509020006 | 13 | 236 | 0.0 | 3.2 | 0.00 | 0.00 | 0.00 | 47 | 999.7 |
| 20260509014503 | 14 | 236 | 0.0 | 4.8 | 0.00 | 0.00 | 0.00 | 46 | 999.5 |
| 20260509013059 | 15 | 226 | 0.0 | 6.4 | 0.00 | 0.00 | 0.00 | 43 | 999.5 |
| 20260509011553 | 15 | 204 | 1.6 | 4.8 | 0.00 | 0.00 | 0.00 | 43 | 999.5 |
| 20260509010046 | 18 | 97 | 0.0 | 0.0 | 0.00 | 0.00 | 0.00 | 34 | 999.4 |
| 20260509004540 | 19 | 97 | 0.0 | 1.6 | 0.00 | 0.00 | 0.00 | 33 | 999.4 |
| 20260509003040 | 20 | 97 | 0.0 | 3.2 | 0.00 | 0.00 | 0.00 | 26 | 999.4 |
| 20260509001534 | 21 | 99 | 0.0 | 1.6 | 0.00 | 0.00 | 0.00 | 25 | 999.4 |
| 20260509000031 | 21 | 92 | 1.6 | 8.0 | 0.00 | 0.00 | 0.00 | 24 | 999.4 |
| 20260508234529 | 21 | 84 | 0.0 | 6.4 | 0.00 | 0.00 | 0.00 | 25 | 999.6 |
| 20260508233026 | 21 | 340 | 3.2 | 9.7 | 0.00 | 0.00 | 0.00 | 25 | 999.7 |
| 20260508231523 | 20 | 355 | 4.8 | 11.3 | 0.00 | 0.00 | 0.00 | 25 | 999.8 |
| 20260508230024 | 21 | 22 | 4.8 | 11.3 | 0.00 | 0.00 | 0.00 | 24 | 1000.0 |
| 20260508230021 | 21 | 12 | 4.8 | 11.3 | 0.00 | 0.00 | 0.00 | 24 | 1000.0 |
| 20260508224526 | 22 | 269 | 4.8 | 12.9 | 0.00 | 0.00 | 0.00 | 22 | 1000.0 |
| 20260508223033 | 21 | 309 | 4.8 | 12.9 | 0.00 | 0.00 | 0.00 | 21 | 1000.1 |
| 20260508221511 | 21 | 259 | 4.8 | 14.5 | 0.00 | 0.00 | 0.00 | 23 | 1000.3 |
| 20260508220009 | 21 | 306 | 3.2 | 12.9 | 0.00 | 0.00 | 0.00 | 23 | 1000.5 |
| 20260508214506 | 21 | 320 | 6.4 | 14.5 | 0.00 | 0.00 | 0.00 | 21 | 1000.8 |
| 20260508213100 | 21 | 311 | 8.0 | 17.7 | 0.00 | 0.00 | 0.00 | 21 | 1000.9 |
| 20260508211558 | 22 | 316 | 6.4 | 24.1 | 0.00 | 0.00 | 0.00 | 21 | 1001.1 |
| 20260508210057 | 21 | 285 | 9.7 | 24.1 | 0.00 | 0.00 | 0.00 | 22 | 1001.3 |
| 20260508204550 | 21 | 258 | 11.3 | 17.7 | 0.00 | 0.00 | 0.00 | 21 | 1001.6 |
| 20260508203056 | 21 | 350 | 11.3 | 19.3 | 0.00 | 0.00 | 0.00 | 20 | 1001.8 |
| 20260508201547 | 21 | 302 | 4.8 | 19.3 | 0.00 | 0.00 | 0.00 | 22 | 1001.8 |
| 20260508200043 | 22 | 285 | 8.0 | 20.9 | 0.00 | 0.00 | 0.00 | 21 | 1002.0 |
| 20260508194536 | 21 | 322 | 12.9 | 24.1 | 0.00 | 0.00 | 0.00 | 21 | 1002.3 |
| 20260508193044 | 22 | 257 | 9.7 | 19.3 | 0.00 | 0.00 | 0.00 | 20 | 1002.4 |
| 20260508191536 | 22 | 344 | 9.7 | 17.7 | 0.00 | 0.00 | 0.00 | 19 | 1002.7 |
| 20260508190031 | 21 | 282 | 8.0 | 20.9 | 0.00 | 0.00 | 0.00 | 22 | 1003.0 |
| 20260508184524 | 21 | 315 | 12.9 | 27.4 | 0.00 | 0.00 | 0.00 | 21 | 1003.4 |
| 20260508183017 | 21 | 360 | 8.0 | 17.7 | 0.00 | 0.00 | 0.00 | 21 | 1003.4 |
| 20260508181513 | 21 | 344 | 9.7 | 29.0 | 0.00 | 0.00 | 0.00 | 22 | 1003.7 |
| 20260508180009 | 21 | 265 | 3.2 | 22.5 | 0.00 | 0.00 | 0.00 | 22 | 1003.9 |
| 20260508174615 | 21 | 265 | 9.7 | 19.3 | 0.00 | 0.00 | 0.00 | 21 | 1004.3 |
| 20260508173057 | 20 | 314 | 8.0 | 20.9 | 0.00 | 0.00 | 0.00 | 22 | 1004.6 |
| 20260508171552 | 19 | 289 | 4.8 | 17.7 | 0.00 | 0.00 | 0.00 | 23 | 1004.9 |
| 20260508170046 | 18 | 285 | 4.8 | 20.9 | 0.00 | 0.00 | 0.00 | 24 | 1005.2 |
| 20260508164542 | 18 | 304 | 12.9 | 22.5 | 0.00 | 0.00 | 0.00 | 22 | 1005.4 |
| 20260508163038 | 18 | 271 | 9.7 | 19.3 | 0.00 | 0.00 | 0.00 | 24 | 1005.4 |
| 20260508161533 | 19 | 307 | 11.3 | 30.6 | 0.00 | 0.00 | 0.00 | 24 | 1005.6 |
| 20260508160025 | 18 | 271 | 9.7 | 19.3 | 0.00 | 0.00 | 0.00 | 25 | 1005.7 |
| 20260508154518 | 17 | 215 | 9.7 | 24.1 | 0.00 | 0.00 | 0.00 | 27 | 1005.9 |
| 20260508153018 | 17 | 309 | 6.4 | 17.7 | 0.00 | 0.00 | 0.00 | 27 | 1006.0 |
| 20260508151515 | 16 | 282 | 9.7 | 27.4 | 0.00 | 0.00 | 0.00 | 28 | 1006.3 |
| 20260508150020 | 16 | 265 | 11.3 | 25.7 | 0.00 | 0.00 | 0.00 | 27 | 1006.3 |
| 20260508144512 | 17 | 267 | 8.0 | 19.3 | 0.00 | 0.00 | 0.00 | 28 | 1006.5 |
| 20260508143013 | 16 | 53 | 4.8 | 9.7 | 0.00 | 0.00 | 0.00 | 29 | 1006.7 |
| 20260508141506 | 15 | 242 | 6.4 | 12.9 | 0.00 | 0.00 | 0.00 | 31 | 1006.9 |
| 20260508140005 | 13 | 206 | 4.8 | 16.1 | 0.00 | 0.00 | 0.00 | 33 | 1007.1 |
| 20260508134607 | 12 | 225 | 8.0 | 20.9 | 0.00 | 0.00 | 0.00 | 34 | 1007.2 |
| 20260508133100 | 12 | 219 | 6.4 | 16.1 | 0.00 | 0.00 | 0.00 | 35 | 1007.4 |
| 20260508131600 | 11 | 236 | 9.7 | 19.3 | 0.00 | 0.00 | 0.00 | 36 | 1007.3 |
| 20260508130059 | 10 | 273 | 4.8 | 19.3 | 0.00 | 0.00 | 0.00 | 39 | 1007.4 |
| 20260508124556 | 9 | 259 | 6.4 | 16.1 | 0.00 | 0.00 | 0.00 | 42 | 1007.5 |
| 20260508123056 | 8 | 209 | 4.8 | 11.3 | 0.00 | 0.00 | 0.00 | 43 | 1007.5 |
| 20260508121557 | 7 | 181 | 3.2 | 11.3 | 0.00 | 0.00 | 0.00 | 45 | 1007.6 |
| 20260508120056 | 7 | 229 | 3.2 | 11.3 | 0.00 | 0.00 | 0.00 | 46 | 1007.5 |